W8MRL Weather Reports


time (UTC)temp
C
wind
direction
speed
KPH
gust
KPH
rain 1hr
cm
rain 24hr
cm
rain mn
cm
humidity
%
barometer
mb
20260509043049 12 293 0.0 1.6 0.03 0.08 0.00 94 1013.7
20260509041546 12 293 0.0 1.6 0.05 0.08 0.00 94 1013.9
20260509040100 12 293 0.0 0.0 0.05 0.08 0.00 93 1013.9
20260509034549 12 293 0.0 1.6 0.03 0.05 0.05 93 1014.0
20260509033042 12 293 0.0 0.0 0.03 0.05 0.05 92 1014.1
20260509031541 12 293 0.0 0.0 0.00 0.03 0.03 91 1014.2
20260509030046 12 293 0.0 1.6 0.03 0.03 0.03 91 1014.3
20260509024542 12 293 0.0 3.2 0.03 0.03 0.03 91 1014.3
20260509023044 12 328 0.0 3.2 0.03 0.03 0.03 90 1014.3
20260509021544 12 330 0.0 1.6 0.00 0.00 0.00 89 1014.7
20260509020041 12 330 0.0 1.6 0.00 0.00 0.00 89 1014.3
20260509014537 12 330 0.0 1.6 0.00 0.00 0.00 88 1013.7
20260509013041 13 330 0.0 1.6 0.00 0.00 0.00 85 1013.7
20260509011549 13 330 0.0 1.6 0.00 0.00 0.00 83 1013.8
20260509010039 13 330 0.0 1.6 0.00 0.00 0.00 81 1013.4
20260509004542 13 321 3.2 8.0 0.00 0.00 0.00 80 1013.5
20260509003036 13 319 1.6 4.8 0.00 0.00 0.00 82 1013.4
20260509001535 14 311 0.0 0.0 0.00 0.00 0.00 82 1013.2
20260509000034 15 311 0.0 1.6 0.00 0.00 0.00 82 1013.2
20260508234534 15 311 0.0 0.0 0.00 0.00 0.00 78 1013.0
20260508233033 15 311 0.0 1.6 0.00 0.00 0.00 78 1012.9
20260508231532 16 311 0.0 1.6 0.00 0.00 0.00 71 1013.1
20260508230031 16 311 0.0 0.0 0.00 0.00 0.00 68 1013.0
20260508224530 16 179 0.0 1.6 0.00 0.00 0.00 69 1013.0
20260508223040 16 179 0.0 0.0 0.00 0.00 0.00 73 1012.8
20260508221530 17 179 0.0 1.6 0.00 0.00 0.00 71 1012.9
20260508220032 17 179 0.0 0.0 0.00 0.00 0.00 64 1012.9
20260508214536 18 179 0.0 0.0 0.00 0.00 0.00 60 1013.0
20260508213128 18 179 0.0 6.4 0.00 0.00 0.00 57 1012.9
20260508211526 18 229 1.6 8.0 0.00 0.00 0.00 57 1013.0
20260508210026 18 212 0.0 6.4 0.00 0.00 0.00 56 1013.1
20260508204530 18 212 1.6 8.0 0.00 0.00 0.00 53 1013.4
20260508203021 19 244 4.8 12.9 0.00 0.00 0.00 52 1013.6
20260508201521 19 223 4.8 12.9 0.00 0.00 0.00 51 1013.9
20260508200019 19 203 6.4 12.9 0.00 0.00 0.00 50 1014.0
20260508194517 19 201 8.0 16.1 0.00 0.00 0.00 49 1014.1
20260508193017 20 217 8.0 17.7 0.00 0.00 0.00 50 1014.2
20260508191515 20 198 8.0 19.3 0.00 0.00 0.00 48 1014.2
20260508190019 21 178 9.7 16.1 0.00 0.00 0.00 47 1014.5
20260508184510 20 162 3.2 16.1 0.00 0.00 0.00 51 1014.8
20260508183007 20 176 4.8 14.5 0.00 0.00 0.00 52 1015.2
20260508181503 20 285 4.8 14.5 0.00 0.00 0.00 55 1015.3
20260508180003 18 247 3.2 14.5 0.00 0.00 0.00 54 1015.7
20260508174604 18 283 3.2 12.9 0.00 0.00 0.00 55 1016.0
20260508173058 18 204 4.8 16.1 0.00 0.00 0.00 54 1016.1
20260508171556 18 233 3.2 17.7 0.00 0.00 0.00 55 1016.3
20260508170054 19 207 4.8 17.7 0.00 0.00 0.00 54 1016.5
20260508164552 20 200 4.8 14.5 0.00 0.00 0.00 53 1016.7
20260508163051 19 258 6.4 17.7 0.00 0.00 0.00 52 1017.0
20260508161549 19 191 4.8 20.9 0.00 0.00 0.00 52 1017.1
20260508160105 19 172 8.0 19.3 0.00 0.00 0.00 53 1017.2
20260508154545 19 246 9.7 19.3 0.00 0.00 0.00 54 1017.4
20260508153046 18 203 8.0 24.1 0.00 0.00 0.00 55 1017.4
20260508151546 18 220 8.0 27.4 0.00 0.00 0.00 55 1017.6
20260508150038 17 222 8.0 25.7 0.00 0.00 0.00 56 1017.6
20260508144534 17 134 8.0 17.7 0.00 0.00 0.00 58 1017.6
20260508143041 16 200 3.2 12.9 0.00 0.00 0.00 62 1017.9
20260508141536 15 232 4.8 11.3 0.00 0.00 0.00 61 1018.3
20260508140024 15 210 4.8 9.7 0.00 0.00 0.00 61 1018.5
20260508134529 13 164 1.6 14.5 0.00 0.00 0.00 63 1018.5
20260508133018 13 196 4.8 12.9 0.00 0.00 0.00 64 1018.6
20260508131512 12 195 3.2 8.0 0.00 0.00 0.00 68 1018.5
20260508130008 10 207 0.0 3.2 0.00 0.00 0.00 79 1018.5
20260508124509 9 214 0.0 3.2 0.00 0.00 0.00 81 1018.5
20260508123000 8 213 0.0 0.0 0.00 0.00 0.00 84 1018.3
20260508121607 7 213 0.0 3.2 0.00 0.00 0.00 86 1018.5
20260508120056 6 246 0.0 0.0 0.00 0.00 0.00 88 1018.5
20260508114556 6 246 0.0 0.0 0.00 0.00 0.00 86 1018.2
20260508113055 7 247 0.0 0.0 0.00 0.00 0.00 86 1018.1
20260508111554 7 246 0.0 0.0 0.00 0.00 0.00 83 1018.0
20260508110057 7 247 0.0 0.0 0.00 0.00 0.00 85 1017.8
20260508104552 6 246 0.0 1.6 0.00 0.00 0.00 86 1017.7
20260508103054 6 249 0.0 1.6 0.00 0.00 0.00 87 1017.8
20260508101550 6 249 0.0 1.6 0.00 0.00 0.00 88 1017.9
20260508100050 6 249 0.0 0.0 0.00 0.00 0.00 88 1017.9
20260508094603 6 249 0.0 0.0 0.00 0.00 0.00 87 1018.0
20260508093049 6 249 0.0 0.0 0.00 0.00 0.00 87 1018.1
20260508091554 6 249 0.0 0.0 0.00 0.00 0.00 86 1017.9
20260508090047 6 249 0.0 1.6 0.00 0.00 0.00 86 1018.1
20260508084547 6 249 0.0 1.6 0.00 0.00 0.00 86 1017.9
20260508083124 6 249 0.0 0.0 0.00 0.00 0.00 85 1018.0
20260508081553 6 249 0.0 1.6 0.00 0.00 0.00 85 1018.3
20260508080053 5 183 0.0 0.0 0.00 0.00 0.00 86 1018.0
20260508074543 5 183 0.0 0.0 0.00 0.00 0.00 87 1017.9
20260508073043 5 183 0.0 0.0 0.00 0.00 0.00 87 1017.9
20260508071544 5 183 0.0 0.0 0.00 0.00 0.00 86 1017.9
20260508070038 5 183 0.0 0.0 0.00 0.00 0.00 85 1018.2
20260508064554 5 183 0.0 0.0 0.00 0.00 0.00 84 1018.4
20260508063038 6 184 0.0 0.0 0.00 0.00 0.00 85 1018.5
20260508061537 6 184 0.0 0.0 0.00 0.00 0.00 83 1018.7
20260508060034 6 184 0.0 1.6 0.00 0.00 0.00 82 1018.8
20260508054532 6 170 0.0 0.0 0.00 0.00 0.00 83 1018.7
20260508053030 6 171 0.0 0.0 0.00 0.00 0.00 83 1018.7
20260508051529 6 171 0.0 0.0 0.00 0.00 0.00 82 1018.8
20260508050034 7 170 0.0 3.2 0.00 0.00 0.00 81 1018.7
20260508044527 7 191 0.0 3.2 0.00 0.00 0.00 78 1018.7